KC8VEU Weather Reports


time (UTC)temp
C
wind
direction
speed
KPH
gust
KPH
rain 1hr
cm
rain 24hr
cm
rain mn
cm
humidity
%
barometer
mb
20260906191517 25 0.0 1.6 0.00 0.00 0.00 70 1010.9
20260906190517 26 0.0 1.6 0.00 0.00 0.00 68 1011.0
20260906185517 25 0.0 0.0 0.00 0.00 0.00 71 1011.2
20260906184517 25 0.0 0.0 0.00 0.00 0.00 69 1011.4
20260906183517 25 0.0 3.2 0.00 0.00 0.00 68 1011.5
20260906182517 26 0.0 1.6 0.00 0.00 0.00 67 1011.6
20260906181517 26 0.0 3.2 0.00 0.00 0.00 66 1011.6
20260906180537 26 0.0 3.2 0.00 0.00 0.00 66 1011.7
20260906175517 25 0.0 1.6 0.00 0.00 0.00 67 1011.7
20260906174517 25 135 1.6 4.8 0.00 0.00 0.00 68 1011.7
20260906173517 25 0.0 4.8 0.00 0.00 0.00 68 1011.8
20260906172517 25 0.0 1.6 0.00 0.00 0.00 68 1011.7
20260906171517 25 0.0 1.6 0.00 0.00 0.00 69 1011.7
20260906170517 25 0.0 1.6 0.00 0.00 0.00 71 1011.7
20260906165517 24 0.0 3.2 0.00 0.00 0.00 70 1011.8
20260906164517 24 135 1.6 8.0 0.00 0.00 0.00 71 1011.8
20260906163517 24 0.0 1.6 0.00 0.00 0.00 71 1011.8
20260906162517 23 158 3.2 8.0 0.00 0.00 0.00 72 1011.8
20260906161537 23 0.0 1.6 0.00 0.00 0.00 72 1011.8
20260906160537 23 158 1.6 6.4 0.00 0.00 0.00 72 1011.9
20260906155517 23 158 1.6 9.7 0.00 0.00 0.00 72 1011.7
20260906154517 22 158 3.2 6.4 0.00 0.00 0.00 70 1011.7
20260906153517 22 158 1.6 4.8 0.00 0.00 0.00 71 1011.7
20260906152517 22 0.0 4.8 0.00 0.00 0.00 71 1011.7
20260906151517 21 0.0 3.2 0.00 0.00 0.00 74 1011.7
20260906150517 21 135 1.6 6.4 0.00 0.00 0.00 75 1011.8
20260906145517 21 158 3.2 8.0 0.00 0.00 0.00 76 1011.9
20260906144516 20 0.0 3.2 0.00 0.00 0.00 77 1011.8
20260906143517 20 135 1.6 6.4 0.00 0.00 0.00 78 1011.7
20260906142537 20 135 1.6 6.4 0.00 0.00 0.00 77 1011.8
20260906141517 20 135 1.6 6.4 0.00 0.00 0.00 78 1011.9
20260906140517 19 0.0 4.8 0.00 0.00 0.00 80 1012.0
20260906135517 19 135 1.6 6.4 0.00 0.00 0.00 80 1012.0
20260906134517 18 158 1.6 4.8 0.00 0.00 0.00 81 1012.0
20260906133517 18 0.0 3.2 0.00 0.00 0.00 84 1012.0
20260906132537 17 158 1.6 4.8 0.00 0.00 0.00 85 1011.8
20260906131517 16 158 1.6 3.2 0.00 0.00 0.00 87 1011.8
20260906130517 16 0.0 1.6 0.00 0.00 0.00 88 1011.7
20260906125517 16 158 1.6 6.4 0.00 0.00 0.00 89 1011.6
20260906124517 15 135 1.6 6.4 0.00 0.00 0.00 89 1011.5
20260906123517 15 113 1.6 4.8 0.00 0.00 0.00 89 1011.4
20260906122517 15 135 1.6 8.0 0.00 0.00 0.00 90 1011.5
20260906121516 15 158 1.6 4.8 0.00 0.00 0.00 90 1011.4
20260906120517 15 135 3.2 8.0 0.00 0.00 0.00 91 1011.4
20260906115516 14 135 3.2 8.0 0.00 0.00 0.00 92 1011.3
20260906114537 14 158 3.2 9.7 0.00 0.03 0.00 92 1011.2
20260906113517 14 113 1.6 9.7 0.00 0.03 0.00 93 1011.2
20260906112517 14 135 3.2 11.3 0.00 0.03 0.00 93 1011.3
20260906111516 14 135 1.6 8.0 0.00 0.03 0.00 93 1011.3
20260906110517 14 113 3.2 9.7 0.00 0.03 0.00 94 1011.1
20260906105537 14 135 3.2 11.3 0.00 0.03 0.00 94 1011.0
20260906104517 14 158 3.2 9.7 0.00 0.03 0.00 94 1011.0
20260906103516 14 113 1.6 8.0 0.00 0.03 0.00 94 1011.0
20260906102516 14 135 1.6 4.8 0.00 0.03 0.00 93 1011.0
20260906101517 15 113 1.6 9.7 0.00 0.03 0.00 93 1011.0
20260906100516 15 135 3.2 8.0 0.00 0.03 0.00 93 1011.0
20260906095517 15 0.0 6.4 0.00 0.03 0.00 92 1011.1
20260906094519 15 135 3.2 9.7 0.00 0.03 0.00 91 1011.0
20260906093517 15 135 3.2 11.3 0.00 0.03 0.00 91 1011.2
20260906092517 15 135 1.6 9.7 0.00 0.03 0.00 90 1011.1
20260906091537 15 0.0 4.8 0.00 0.03 0.00 90 1011.0
20260906091016 15 135 1.6 6.4 0.00 0.03 0.00 90 1011.0
20260906090017 15 0.0 4.8 0.00 0.03 0.00 89 1011.0
20260906085017 15 113 1.6 4.8 0.00 0.03 0.00 89 1011.2
20260906084017 15 0.0 1.6 0.00 0.03 0.00 89 1011.2
20260906083017 15 0.0 1.6 0.00 0.03 0.00 89 1011.1
20260906082057 15 0.0 1.6 0.00 0.03 0.00 90 1011.0
20260906081017 15 0.0 6.4 0.00 0.03 0.00 92 1010.9
20260906080037 15 0.0 1.6 0.00 0.03 0.00 93 1011.0
20260906075016 14 0.0 1.6 0.00 0.03 0.00 93 1010.9
20260906074016 13 0.0 0.0 0.00 0.03 0.00 92 1011.0
20260906073017 13 0.0 0.0 0.00 0.03 0.00 91 1011.0
20260906072016 14 0.0 0.0 0.00 0.03 0.00 91 1011.1
20260906071036 14 0.0 0.0 0.00 0.03 0.00 91 1011.1
20260906070037 14 0.0 0.0 0.00 0.03 0.00 90 1011.1
20260906065017 15 0.0 0.0 0.00 0.03 0.00 88 1011.1
20260906064036 15 0.0 0.0 0.00 0.03 0.00 87 1011.2
20260906063016 16 0.0 0.0 0.00 0.03 0.00 86 1011.0
20260906062057 16 0.0 1.6 0.00 0.03 0.00 85 1011.0
20260906061017 16 135 1.6 4.8 0.00 0.03 0.00 84 1010.8
20260906060017 16 135 3.2 8.0 0.00 0.03 0.00 84 1010.7
20260906055037 16 158 1.6 8.0 0.00 0.03 0.00 84 1010.6
20260906054016 16 135 3.2 8.0 0.00 0.03 0.00 83 1010.5
20260906053016 16 135 1.6 4.8 0.00 0.03 0.00 83 1010.4
20260906052016 16 135 1.6 3.2 0.00 0.03 0.00 84 1010.5
20260906051016 16 135 1.6 4.8 0.00 0.03 0.00 85 1010.5
20260906050016 16 135 3.2 6.4 0.00 0.03 0.00 85 1010.4
20260906045016 16 158 3.2 9.7 0.00 0.03 0.00 86 1010.3
20260906044016 16 158 4.8 8.0 0.00 0.03 0.00 87 1010.2
20260906043016 16 135 1.6 6.4 0.00 0.03 0.00 88 1010.2
20260906042016 16 158 3.2 9.7 0.00 0.03 0.00 90 1010.3
20260906041016 16 135 3.2 6.4 0.00 0.03 0.00 91 1010.4
20260906040016 16 135 1.6 9.7 0.00 0.03 0.03 91 1010.3
20260906035037 16 158 1.6 8.0 0.00 0.03 0.03 91 1010.2
20260906034017 16 158 3.2 9.7 0.00 0.03 0.03 91 1010.2
20260906033017 16 158 3.2 8.0 0.00 0.03 0.03 91 1010.1
20260906032017 16 135 1.6 6.4 0.00 0.03 0.03 91 1010.1
20260906031017 16 135 1.6 8.0 0.00 0.03 0.03 91 1010.0
20260906030037 16 135 3.2 8.0 0.00 0.03 0.03 91 1010.0
20260906025517 16 135 3.2 11.3 0.00 0.03 0.03 90 1009.9
20260906024638 16 135 1.6 4.8 0.00 0.03 0.03 90 1009.8
20260906023537 16 135 1.6 6.4 0.00 0.03 0.03 89 1009.8
20260906022517 16 135 1.6 4.8 0.00 0.03 0.03 88 1009.8
20260906021537 16 135 1.6 8.0 0.00 0.03 0.03 87 1009.6
20260906020517 17 0.0 11.3 0.00 0.03 0.03 85 1009.7
20260906015517 17 0.0 4.8 0.00 0.03 0.03 84 1009.8
20260906014537 17 0.0 4.8 0.00 0.03 0.03 83 1009.7
20260906013517 17 0.0 6.4 0.00 0.03 0.03 82 1009.6
20260906012517 17 135 1.6 8.0 0.00 0.03 0.03 81 1009.5
20260906011517 17 135 1.6 4.8 0.00 0.03 0.03 81 1009.4
20260906010517 18 0.0 6.4 0.00 0.03 0.03 79 1009.3
20260906005517 18 0.0 4.8 0.00 0.03 0.03 78 1009.2
20260906004517 18 0.0 1.6 0.00 0.03 0.03 77 1009.3
20260906003517 19 0.0 1.6 0.00 0.03 0.03 76 1009.3
20260906002537 19 0.0 1.6 0.00 0.03 0.03 75 1009.4
20260906001517 20 0.0 1.6 0.00 0.03 0.03 73 1009.3
20260906000557 20 0.0 0.0 0.00 0.03 0.03 70 1009.4
20260905235537 21 0.0 4.8 0.00 0.03 0.03 67 1009.5
20260905234517 22 0.0 1.6 0.00 0.03 0.03 65 1009.5
20260905233517 22 0.0 1.6 0.00 0.03 0.03 64 1009.5
20260905232517 23 0.0 0.0 0.00 0.03 0.03 62 1009.6
20260905231517 23 0.0 1.6 0.00 0.03 0.03 62 1009.6
20260905230517 23 0.0 1.6 0.00 0.03 0.03 64 1009.5
20260905225517 23 0.0 0.0 0.00 0.03 0.03 69 1009.6
20260905224537 23 0.0 1.6 0.00 0.03 0.03 68 1009.7
20260905223517 23 0.0 0.0 0.00 0.03 0.03 68 1009.7
20260905222517 23 0.0 0.0 0.00 0.03 0.03 68 1009.9
20260905221517 23 0.0 1.6 0.00 0.03 0.03 67 1009.7
20260905220517 23 0.0 0.0 0.00 0.03 0.03 66 1009.4
20260905215517 23 0.0 0.0 0.00 0.03 0.03 66 1009.6
20260905214517 24 0.0 0.0 0.00 0.03 0.03 65 1009.6
20260905213537 24 0.0 0.0 0.00 0.03 0.03 64 1009.7
20260905212517 24 0.0 1.6 0.00 0.03 0.03 62 1009.6
20260905211517 25 0.0 1.6 0.00 0.03 0.03 62 1009.6
20260905210517 25 0.0 4.8 0.00 0.03 0.03 59 1009.7
20260905205517 25 0.0 1.6 0.00 0.03 0.03 58 1009.9
20260905204518 25 0.0 3.2 0.00 0.03 0.03 55 1010.0
20260905203517 25 0.0 6.4 0.00 0.03 0.03 54 1010.0
20260905202517 25 0.0 4.8 0.00 0.03 0.03 55 1010.1
20260905201537 25 0.0 6.4 0.00 0.03 0.03 55 1010.1
20260905200517 25 135 1.6 6.4 0.00 0.03 0.03 55 1010.2
20260905195517 25 0.0 8.0 0.00 0.03 0.03 53 1009.9
20260905194517 25 0.0 4.8 0.00 0.03 0.03 54 1009.9
20260905193517 24 135 3.2 12.9 0.00 0.03 0.03 54 1009.7
20260905192517 25 158 1.6 11.3 0.00 0.03 0.03 57 1009.9